Home > Weather > Famagusta > Past weeks

Flag for Cyprus Past Weather in Famagusta, Northern Cyprus, Cyprus — Yesterday and Last 2 Weeks

Now
81 °F

Clear.


Feels Like: 85 °F
Forecast: 76 / 91 °F
Wind: 6 mph from West

Location: Larnaca Airport

Current Time: Jul 30, 2016 at 5:06:48 AM

Latest Report: Jul 30, 2016 at 4:30 AM


Visibility: 10 mi

Pressure: 29.62 "Hg

Humidity: 74%

Dew Point: 72 °F

Location of FamagustaLocation

Past Weather in Famagusta — Graph

°F

Famagusta Temperature Yesterday

Maximum temperature yesterday: 93 °F (at 4:30 PM)
Minimum temperature yesterday: 73 °F (at 4:00 AM)
Average temperature yesterday: 85 °F

High & Low Weather Summary for the Past Weeks

 TemperatureHumidityPressure
High93 °F (Jul 18, 3:30 PM)100% (Jul 24, 6:00 AM)29.86 "Hg (Jul 24, 6:00 AM)
Low72 °F (Jul 26, 4:30 AM)27% (Jul 25, 4:00 AM)29.59 "Hg (Jul 18, 4:00 PM)
Average83 °F68%29.69 "Hg
* Reported Jul 15 4:00 AM — Jul 30 4:00 AM, Famagusta, Weather by CustomWeather, © 2016

Note: Actual official high and low records may vary slightly from our data, if they occured in-between our weather recording intervals... More about our weather records

Advertising

Famagusta Weather History for the Previous 24 Hours

Scroll right to see more
 ConditionsComfort  
Time TempWeatherWind HumidityBarometerVisibility
4:00 AM
Sat, Jul 30
81 °FClear.3 mph79%29.62 "Hg10 mi
3:30 AM81 °FPassing clouds.3 mph79%29.62 "HgN/A
3:00 AM81 °FClear.7 mph84%29.62 "Hg10 mi
2:30 AM81 °FClear.9 mph84%29.62 "Hg10 mi
2:00 AM82 °FClear.9 mph79%29.62 "Hg10 mi
1:30 AM82 °FClear.8 mph79%29.62 "Hg10 mi
1:00 AM81 °FPassing clouds.6 mph89%29.62 "HgN/A
12:30 AM81 °FClear.6 mph89%29.62 "Hg10 mi
12:00 AM82 °FClear.7 mph70%29.62 "Hg10 mi
11:30 PM
Fri, Jul 29
86 °FClear.7 mph46%29.62 "Hg10 mi
11:00 PM88 °FClear.9 mph43%29.62 "Hg10 mi
10:30 PM88 °FClear.10 mph46%29.62 "Hg10 mi
10:00 PM84 °FClear.8 mph79%29.62 "Hg10 mi
9:30 PM84 °FClear.5 mph84%29.62 "Hg10 mi
9:00 PM84 °FPassing clouds.5 mph84%29.62 "HgN/A
8:30 PM86 °FSunny.6 mph75%29.62 "Hg10 mi
8:00 PM88 °FSunny.1 mph66%29.62 "Hg10 mi
7:30 PM90 °FSunny.5 mph67%29.62 "Hg10 mi
7:00 PM88 °FSunny.8 mph70%29.59 "Hg10 mi
6:30 PM90 °FSunny.12 mph67%29.59 "Hg10 mi
6:00 PM91 °FSunny.15 mph52%29.59 "Hg10 mi
5:30 PM93 °FPassing clouds.15 mph41%29.62 "HgN/A
5:00 PM93 °FPassing clouds.15 mph44%29.62 "HgN/A
4:30 PM93 °FPassing clouds.13 mph44%29.62 "HgN/A
4:00 PM91 °FPassing clouds.13 mph52%29.65 "HgN/A
3:30 PM91 °FPassing clouds.12 mph49%29.65 "HgN/A
3:00 PM90 °FPassing clouds.12 mph52%29.65 "HgN/A
2:30 PM90 °FPassing clouds.10 mph55%29.65 "HgN/A
2:00 PM90 °FPassing clouds.10 mph63%29.65 "HgN/A
1:30 PM90 °FPassing clouds.10 mph59%29.65 "HgN/A
1:00 PM90 °FSunny.10 mph59%29.68 "Hg10 mi
12:30 PM86 °FSunny.9 mph70%29.68 "Hg10 mi
12:00 PM86 °FPassing clouds.10 mph75%29.68 "HgN/A
11:30 AM88 °FSunny.12 mph66%29.68 "Hg10 mi
11:00 AM88 °FSunny.10 mph70%29.68 "Hg10 mi
10:30 AM88 °FSunny.8 mph66%29.68 "Hg10 mi
10:00 AM88 °FPassing clouds.6 mph62%29.68 "HgN/A
9:30 AM88 °FPassing clouds.5 mph62%29.68 "HgN/A
9:00 AM86 °FSunny.6 mph70%29.68 "Hg10 mi
8:30 AM84 °FSunny.6 mph74%29.68 "Hg10 mi
8:00 AM84 °FPassing clouds.7 mph79%29.68 "HgN/A
7:30 AM82 °FSunny.6 mph84%29.68 "Hg10 mi
7:00 AM79 °FSunny.5 mph89%29.68 "Hg10 mi
6:30 AM79 °FClear.5 mph89%29.68 "Hg10 mi
6:00 AM77 °FPassing clouds.5 mph89%29.68 "HgN/A
5:30 AM77 °FPassing clouds.5 mph83%29.68 "HgN/A
5:00 AM77 °FClear.5 mph79%29.65 "Hg10 mi
Weather by CustomWeather, © 2016

See weather overviewHow to use our weather pages